Abdullah Town, Pakistan

11:30 AM PKT on December 15, 2017 (GMT +0500)
Westridge-1, Rawalpindi, Pakistan | | Change Station

Elev 1716 ft 33.61 °N, 73.03 °E | Updated 8 seconds ago

Haze
Haze
56.3 °F
Feels Like 56.3 °F
N
1.8
Wind Variable Wind from SSW
Gusts 4.9 mph

Today
High -- | Low -- °F
--% Chance of Precip.
Yesterday
High -- | Low -- °F
Precip. -- in
Pressure 30.24 in
Visibility -9999.0 miles
Clouds
Dew Point 42 °F
Humidity 59%
Rainfall 0.00 in
Snow Depth Not available.
7:04 AM 5:01 PM
Waning Crescent, 8% visible
METAR OPRN 150600Z 23004KT 3600 HZ NSC 13/07 Q1024.6/30.26
Pressure 30.24 in
Visibility -9999.0 miles
Clouds
Dew Point 42 °F
Humidity 59%
Rainfall 0.00 in
Snow Depth Not available.
7:04 AM 5:01 PM
Waning Crescent, 8% visible
METAR OPRN 150600Z 23004KT 3600 HZ NSC 13/07 Q1024.6/30.26

Get Severe Weather Alerts

Thanks for signing up!

Be on the lookout for a verification email in your inbox.

You'll start receiving the daily forecast at 6 AM.

×

10-Day Weather Forecast

No radar image for this location.
×

Almanac

Astronomy

Dec. 15, 2017 Rise Set
Actual Time
Civil Twilight
Nautical Twilight
Astronomical Twilight
Moon
Length of Visible Light
Length of Day
Tomorrow will be .
, % of the Moon is Illuminated

Today's Extremes

Country Highs Country Lows

Community

WunderPhotos

Category 6

Welcome to Category 6. This is the collective home for Weather Underground's featured writeups by Dr. Jeff Masters (right), Bob Henson (left), Chris Burt, and other regular contributors.

Nearby

Air Quality

  Air Quality AQ Index Pollutant
Not available.

Snow Depth

Station Depth Elevation

Earthquake Activity

City Distance Mag. Time & Date
Minimum magnitude displayed is 2.5.

Coastal Water Temperatures

Place Temperature

Stations

Nearby Weather Stations

Station Location Temp. Windchill Dew Point Humidity Wind Precip. Elev Updated Type